Wind_Speed
3 6 10 19 19 25 30 37 29 22 29 20 16 21 27 36 43 53 60 59 56 56 55 52 50 47 43 43 46 47 48 49 51 57 60 62 63 62 61 60 60 62 65 66
4 6 10 19 22 27 33 38 26 27 21 18 11 8 15 21 30 44 57 54 51 50 49 49 45 42 44 46 47 48 49 48 50 57 60 62 63 61 58 59 61 64 66 69
3 9 7 17 20 26 34 40 43 45 34 22 11 8 11 16 23 40 54 49 47 45 47 46 44 43 45 46 47 48 49 49 50 57 59 59 59 59 58 60 62 65 68 71
7 5 13 15 19 24 36 42 43 44 48 38 32 31 29 29 27 31 51 46 43 41 43 43 44 46 45 47 47 46 47 46 48 54 55 56 57 57 58 60 63 66 69 72
15 4 14 14 19 24 29 42 41 40 42 40 38 32 35 35 31 32 44 48 44 44 45 45 45 46 46 47 45 42 41 41 46 50 52 53 55 56 58 61 64 67 71 76
14 5 3 6 11 19 28 30 38 32 36 37 34 28 33 40 35 14 30 39 42 45 47 46 44 43 43 40 40 38 37 39 43 46 48 50 53 56 59 62 66 71 75 78
15 9 1 4 7 11 16 18 25 29 28 28 27 28 25 23 27 20 4 16 30 35 36 36 34 33 33 33 32 30 32 36 40 41 44 49 53 57 60 64 69 73 77 82
17 16 11 8 7 7 8 14 15 21 22 16 19 16 19 22 21 17 11 8 8 11 16 18 18 17 17 18 21 26 30 34 36 40 46 50 54 58 62 66 71 77 82 87
14 11 12 10 9 9 10 14 14 10 12 11 9 9 11 10 13 14 12 10 8 6 7 8 10 13 16 19 24 28 32 36 39 43 48 53 57 61 66 71 76 81 86 91
19 18 17 15 18 17 15 13 15 12 8 7 6 3 3 6 6 8 8 5 2 4 6 9 12 15 19 23 28 33 36 39 44 48 53 57 61 66 71 76 80 85 90 95
9 21 20 27 27 17 10 5 10 12 10 11 10 9 7 6 7 7 6 5 6 7 9 12 16 21 25 29 33 37 41 46 50 54 59 63 68 72 76 80 84 88 90 90
18 16 28 21 18 14 10 4 9 15 14 14 15 14 12 10 9 8 9 10 12 14 16 19 23 28 32 36 41 45 49 53 57 61 65 69 73 76 79 83 84 83 78 77
17 23 15 10 9 7 5 3 5 9 11 11 12 15 14 11 11 12 14 17 19 21 22 25 29 33 39 44 48 52 56 60 63 65 68 72 74 77 77 72 68 69 75 81
26 14 11 9 9 9 7 7 7 8 10 10 10 11 14 14 14 15 17 20 23 25 26 29 32 37 41 46 50 53 56 59 62 65 67 66 61 58 61 67 73 79 82 87
18 15 13 13 11 10 7 7 8 8 9 8 8 10 10 10 13 15 17 20 21 22 23 27 31 37 42 45 49 52 55 56 54 51 50 52 56 61 66 72 77 82 88 95
19 17 12 9 10 10 8 7 5 4 4 4 4 5 6 9 11 13 15 17 19 22 27 31 34 38 43 45 45 44 41 42 45 49 53 57 62 67 72 78 83 89 94 97
18 12 10 8 8 11 11 11 11 10 8 8 8 8 11 14 15 17 20 23 26 29 32 34 37 39 43 46 44 41 41 44 49 53 57 62 67 73 79 84 89 95 98 102
14 14 12 13 14 16 16 15 15 13 11 11 14 16 18 20 23 26 29 31 34 37 38 41 41 43 44 48 42 41 44 48 52 57 63 68 74 80 85 90 95 98 100 96
18 17 17 21 21 22 21 19 18 18 18 18 19 21 24 28 31 34 38 41 43 45 47 47 47 48 47 47 42 42 46 51 56 63 69 75 81 85 90 96 99 96 89 86
22 22 24 26 27 28 26 23 22 22 22 24 26 30 33 37 40 43 47 49 50 50 49 48 47 45 46 43 42 46 51 57 64 70 76 82 88 91 96 97 92 86 83 79
30 29 27 27 27 27 26 26 26 25 28 31 34 35 34 36 39 41 43 44 44 44 42 41 39 41 39 42 47 53 58 65 71 77 84 88 93 96 95 88 82 78 76 70
29 28 28 27 28 28 29 29 30 32 34 33 31 30 32 34 35 34 32 29 28 28 30 32 34 39 44 50 55 61 66 72 78 84 88 94 95 92 86 78 75 71 67 60
33 33 33 34 34 33 33 34 35 33 30 30 30 31 33 35 35 33 31 31 32 34 37 40 44 48 53 58 63 69 75 80 85 89 95 95 90 82 74 71 69 64 57 50
41 40 41 40 38 39 38 36 33 32 32 32 34 37 38 39 39 38 38 39 40 42 45 48 52 57 61 67 72 77 82 86 91 95 94 90 82 75 70 66 61 54 47 41
45 43 42 41 39 37 35 34 34 34 36 39 42 43 43 43 44 44 45 46 48 50 54 57 61 65 70 75 80 84 88 92 94 92 90 82 74 68 63 58 51 44 40 38
47 45 44 43 42 41 41 41 41 42 44 45 47 47 46 47 48 49 51 53 55 58 61 65 68 73 77 82 86 89 91 91 90 87 81 73 67 62 55 48 42 38 36 32
51 50 49 48 47 47 46 46 47 48 48 48 48 49 49 50 52 54 56 59 62 64 68 72 75 79 84 87 88 88 86 86 84 82 74 68 62 56 48 41 38 35 31 27
Wind_Direction
43 352 346 22 20 23 12 4 349 341 328 324 282 255 241 236 231 221 217 220 215 213 215 218 226 233 233 237 240 245 249 250 244 238 237 238 240 244 249 255 262 267 271 274
254 25 10 39 36 26 24 24 20 35 20 342 320 243 222 209 213 212 207 210 207 207 209 218 225 233 234 237 241 247 249 251 247 239 238 238 241 245 251 258 264 270 274 276
84 2 18 70 40 30 30 31 36 37 43 53 89 123 156 172 187 194 199 201 201 202 209 218 227 233 236 240 244 248 249 249 245 240 240 239 243 248 255 262 267 272 276 278
115 326 81 67 45 25 29 36 42 44 37 45 63 89 108 122 141 172 189 194 198 205 214 221 229 231 234 238 243 248 250 250 244 238 241 241 245 252 259 265 271 275 279 282
146 41 88 70 34 24 26 32 37 45 50 47 50 71 88 99 120 148 179 192 201 210 217 224 229 231 237 243 249 252 250 246 240 240 242 244 249 257 264 269 274 278 281 284
199 207 244 47 20 23 34 16 23 31 44 60 65 60 101 103 90 104 169 187 202 214 222 228 235 241 246 250 249 246 244 240 239 243 245 248 255 262 268 272 277 280 284 288
217 204 87 323 322 15 27 31 28 24 29 52 66 82 90 120 127 117 129 199 213 220 227 234 236 237 235 235 239 239 238 240 243 246 249 256 263 268 273 277 281 284 287 291
209 213 223 247 294 307 351 14 26 15 12 9 61 74 76 92 109 129 161 166 167 197 208 211 215 223 230 236 240 241 244 245 249 253 260 266 271 274 278 282 285 288 291 293
220 229 243 275 282 311 311 324 334 357 339 352 23 45 67 99 93 104 137 139 153 166 181 197 213 229 241 245 246 247 247 252 259 265 270 273 276 279 282 285 288 290 292 295
243 248 251 275 283 293 297 304 306 300 276 282 310 320 136 133 122 109 126 137 162 208 231 239 245 248 251 250 249 252 258 264 268 271 274 277 280 283 285 287 290 292 293 294
274 257 272 279 286 305 306 249 229 208 204 225 220 214 202 179 168 162 169 188 209 233 250 252 253 253 254 255 259 263 265 268 271 274 277 279 282 285 287 290 291 292 293 295
264 268 268 284 295 296 294 236 223 205 198 206 217 210 203 207 210 207 208 219 226 234 239 245 250 255 258 260 262 265 268 271 273 276 279 282 285 287 289 290 292 294 297 298
259 258 272 286 272 276 283 252 235 233 234 229 221 217 213 215 219 224 229 235 238 242 248 252 257 260 262 263 266 268 271 274 277 279 282 284 286 288 290 293 294 295 298 300
245 244 245 241 219 223 222 226 227 225 229 231 229 235 236 236 245 256 259 259 260 259 261 263 264 266 267 268 269 271 274 277 280 283 285 287 290 291 294 298 300 301 301 302
226 221 205 211 210 220 220 221 219 220 218 215 217 226 232 241 248 250 252 255 260 267 273 275 277 280 278 279 280 281 282 283 286 287 289 291 293 296 298 300 302 303 304 305
201 199 190 192 196 209 209 206 190 184 206 194 202 209 210 226 237 245 256 268 276 285 288 285 291 295 298 295 295 292 291 290 290 291 293 295 297 300 301 303 304 304 305 308
184 188 198 208 217 223 220 215 213 213 212 222 231 242 255 263 272 277 281 282 285 287 293 297 301 303 307 306 299 294 292 291 293 296 298 300 302 303 304 305 306 307 309 310
206 206 212 227 232 236 238 231 225 232 242 260 271 272 274 280 284 285 287 289 292 295 297 296 300 304 305 307 297 292 291 294 298 301 303 303 305 305 307 308 309 311 313 312
210 212 220 228 236 236 236 238 243 248 254 265 276 280 282 286 287 287 287 288 290 292 293 295 299 302 301 303 295 294 297 300 303 304 305 306 307 308 311 312 312 315 314 312
221 224 225 227 230 234 239 243 249 254 266 276 279 282 285 289 289 290 289 290 290 290 292 294 298 298 300 299 298 302 305 306 307 308 308 310 311 314 313 313 317 315 314 315
227 225 226 232 238 243 249 255 262 267 271 276 284 289 292 298 302 302 299 297 294 292 292 295 296 298 298 302 306 308 310 309 309 312 312 314 315 313 315 318 316 315 315 317
240 241 242 243 244 248 254 261 266 270 277 281 283 289 297 307 312 310 309 310 309 305 301 300 302 305 308 309 310 310 310 312 313 314 315 315 313 315 319 317 316 318 317 318
246 246 246 250 255 259 265 271 273 275 274 277 282 291 299 301 302 305 309 310 309 309 309 309 309 310 310 310 311 312 313 314 315 315 315 314 315 321 320 318 319 319 318 319
248 250 253 257 260 266 267 267 267 269 271 276 284 291 294 295 295 299 302 304 305 306 306 308 308 309 311 313 313 314 314 316 317 315 315 315 321 322 320 320 320 320 320 322
252 253 256 258 261 261 262 267 274 278 281 284 286 289 290 291 293 295 297 298 301 304 306 307 309 311 313 313 313 314 316 317 316 316 315 321 325 324 322 322 322 323 323 326
251 253 257 259 262 264 268 272 275 277 278 280 282 284 286 288 290 291 294 298 301 303 305 307 309 311 312 313 313 317 317 318 316 316 320 328 326 326 325 325 325 325 327 327
250 250 252 255 257 261 265 268 271 273 277 279 280 283 285 287 289 291 295 298 300 303 305 307 309 311 312 313 316 318 318 317 316 318 328 329 329 329 328 329 328 328 328 325
Height
10425 10424 10424 10420 10412 10407 10396 10382 10367 10349 10333 10326 10319 10319 10323 10332 10343 10357 10376 10392 10416 10432 10445 10457 10466 10473 10479 10484 10487 10491 10493 10495 10497 10499 10503 10507 10510 10513 10516 10519 10520 10517 10514 10510
10423 10422 10420 10416 10411 10405 10394 10382 10364 10348 10337 10323 10317 10316 10320 10327 10339 10355 10373 10390 10411 10427 10439 10449 10458 10465 10470 10474 10478 10481 10483 10486 10488 10491 10493 10496 10500 10503 10507 10508 10507 10504 10500 10496
10421 10419 10417 10414 10410 10404 10395 10382 10367 10354 10346 10337 10326 10320 10322 10330 10340 10356 10375 10392 10409 10423 10434 10445 10452 10457 10462 10466 10470 10472 10474 10474 10476 10479 10484 10488 10492 10495 10496 10496 10494 10491 10487 10481
10418 10417 10416 10414 10408 10403 10396 10385 10374 10365 10356 10346 10339 10332 10332 10339 10350 10364 10382 10397 10410 10422 10432 10439 10445 10450 10453 10457 10460 10462 10464 10466 10468 10473 10477 10481 10484 10486 10486 10485 10482 10477 10472 10466
10417 10416 10415 10412 10409 10403 10396 10388 10383 10376 10370 10361 10354 10351 10351 10354 10363 10375 10389 10402 10411 10419 10426 10432 10437 10442 10446 10450 10453 10455 10457 10458 10462 10466 10470 10473 10476 10477 10475 10472 10469 10464 10457 10450
10416 10416 10414 10412 10410 10405 10398 10395 10389 10386 10380 10377 10374 10375 10373 10375 10382 10392 10400 10405 10412 10417 10423 10429 10434 10438 10442 10444 10446 10447 10449 10452 10456 10460 10464 10466 10467 10466 10464 10460 10455 10449 10442 10434
10413 10414 10413 10411 10410 10407 10405 10402 10399 10393 10388 10387 10388 10389 10390 10392 10394 10400 10404 10410 10414 10419 10423 10427 10430 10432 10435 10437 10440 10442 10445 10449 10453 10455 10457 10458 10457 10455 10451 10446 10440 10434 10427 10418
10411 10411 10411 10411 10410 10410 10408 10406 10404 10402 10399 10396 10395 10396 10397 10400 10402 10405 10409 10412 10414 10418 10421 10424 10426 10429 10432 10434 10436 10440 10443 10446 10448 10449 10449 10448 10446 10442 10437 10431 10425 10417 10408 10398
10409 10409 10410 10409 10409 10408 10408 10407 10406 10407 10405 10403 10401 10400 10400 10403 10405 10408 10411 10413 10415 10418 10420 10423 10426 10428 10430 10433 10436 10438 10440 10441 10441 10441 10439 10437 10433 10429 10423 10417 10410 10401 10390 10378
10407 10407 10408 10407 10406 10405 10405 10404 10405 10404 10404 10404 10404 10404 10404 10405 10407 10409 10411 10414 10417 10419 10421 10423 10426 10428 10430 10432 10433 10434 10435 10434 10433 10432 10429 10425 10421 10415 10408 10401 10392 10382 10371 10358
10406 10406 10406 10404 10402 10402 10401 10400 10401 10401 10401 10402 10403 10404 10405 10406 10408 10410 10412 10414 10416 10419 10421 10423 10425 10426 10427 10428 10428 10428 10427 10425 10423 10420 10417 10411 10406 10399 10391 10383 10374 10363 10351 10338
10405 10404 10403 10402 10401 10401 10399 10399 10400 10401 10401 10402 10402 10403 10404 10406 10407 10409 10411 10413 10415 10417 10418 10419 10420 10421 10421 10421 10420 10418 10417 10414 10411 10407 10402 10396 10389 10381 10373 10364 10354 10344 10332 10319
10402 10401 10400 10402 10402 10399 10399 10399 10399 10400 10401 10402 10403 10403 10403 10405 10406 10408 10409 10411 10413 10414 10415 10415 10415 10415 10413 10412 10410 10407 10405 10402 10397 10392 10386 10379 10371 10364 10354 10345 10336 10327 10316 10302
10398 10399 10399 10400 10399 10398 10398 10398 10398 10399 10400 10400 10401 10402 10403 10405 10406 10407 10408 10409 10411 10411 10410 10409 10408 10406 10403 10401 10398 10395 10391 10387 10381 10376 10370 10362 10355 10346 10337 10327 10314 10302 10292 10281
10394 10396 10395 10397 10397 10397 10397 10398 10398 10399 10399 10399 10400 10401 10402 10404 10405 10405 10406 10406 10406 10405 10404 10402 10400 10397 10393 10390 10386 10382 10377 10371 10366 10361 10354 10347 10340 10332 10322 10311 10299 10287 10272 10255
10391 10393 10394 10395 10395 10396 10396 10397 10398 10398 10399 10399 10400 10401 10401 10402 10402 10402 10402 10401 10400 10398 10396 10393 10390 10387 10382 10377 10373 10367 10363 10358 10353 10347 10341 10334 10325 10315 10304 10292 10279 10265 10252 10239
10388 10390 10391 10392 10393 10394 10395 10396 10396 10398 10398 10399 10399 10399 10400 10399 10399 10398 10396 10394 10392 10390 10387 10384 10380 10376 10371 10365 10360 10355 10351 10346 10341 10335 10327 10318 10308 10296 10284 10272 10259 10243 10228 10211
10384 10386 10388 10389 10390 10391 10392 10393 10393 10394 10396 10396 10396 10395 10395 10394 10392 10390 10388 10386 10383 10380 10377 10373 10369 10365 10360 10355 10349 10344 10339 10333 10327 10319 10310 10299 10289 10277 10264 10250 10235 10219 10201 10181
10379 10381 10383 10385 10386 10387 10388 10388 10389 10390 10390 10390 10390 10389 10388 10386 10384 10382 10379 10376 10373 10369 10366 10362 10358 10354 10349 10343 10337 10332 10326 10320 10312 10302 10292 10281 10269 10257 10242 10225 10209 10193 10176 10158
10374 10376 10377 10379 10380 10381 10382 10383 10383 10384 10384 10383 10382 10381 10379 10377 10375 10371 10368 10363 10359 10355 10352 10349 10345 10341 10336 10331 10326 10320 10313 10305 10295 10285 10273 10261 10247 10233 10216 10202 10187 10170 10154 10140
10368 10369 10371 10373 10373 10375 10375 10376 10376 10376 10376 10374 10373 10371 10369 10366 10361 10357 10352 10348 10345 10341 10339 10336 10333 10329 10324 10319 10313 10306 10298 10288 10278 10266 10253 10239 10224 10208 10194 10180 10164 10148 10134 10121
10361 10363 10364 10365 10365 10366 10367 10368 10368 10367 10366 10365 10363 10361 10358 10355 10352 10348 10344 10339 10335 10331 10329 10326 10322 10318 10313 10307 10300 10291 10282 10271 10260 10247 10233 10217 10201 10187 10175 10159 10144 10131 10117 10106
10353 10354 10355 10356 10357 10358 10359 10359 10358 10357 10357 10355 10354 10352 10349 10346 10344 10341 10337 10332 10328 10324 10320 10316 10312 10307 10301 10294 10285 10274 10264 10253 10241 10227 10210 10195 10182 10171 10154 10139 10126 10114 10103 10094
10341 10343 10345 10346 10347 10348 10348 10348 10348 10347 10347 10345 10343 10341 10339 10337 10335 10331 10327 10323 10319 10315 10311 10306 10301 10294 10287 10278 10268 10257 10246 10235 10221 10203 10187 10174 10165 10151 10135 10122 10110 10100 10091 10083
10330 10332 10334 10335 10336 10337 10337 10338 10337 10337 10336 10334 10333 10331 10329 10326 10324 10320 10317 10313 10309 10304 10299 10293 10286 10280 10271 10261 10251 10240 10229 10215 10198 10181 10167 10158 10146 10131 10118 10107 10096 10088 10080 10074
10318 10320 10322 10323 10324 10325 10326 10327 10326 10326 10325 10323 10322 10320 10318 10316 10313 10309 10305 10301 10296 10291 10285 10279 10272 10264 10254 10244 10234 10224 10210 10193 10175 10163 10152 10143 10130 10117 10106 10095 10087 10079 10073 10067
10305 10307 10309 10311 10312 10313 10314 10315 10314 10313 10313 10311 10309 10307 10305 10303 10299 10296 10292 10288 10283 10277 10271 10264 10257 10248 10238 10227 10218 10206 10190 10173 10159 10147 10138 10126 10115 10105 10095 10086 10080 10073 10067 10062